Regional Weather Roundup
Issued by NWS Upton, NY

Current Version | Previous Version | Graphics & Text | Print | Product List | Glossary Off
Versions: 1 2 3 4 5 6 7 8 9 10 11 12 13 14 15 16 17 18 19 20 21 22 23 24 25 26 27 28 29 30 31 32 33 34 35 36 37 38 39 40 41 42 43 44 45 46 47 48 49 50

000
ASUS41 KOKX 181205
RWROKX

REGIONAL WEATHER ROUNDUP
NATIONAL WEATHER SERVICE NEW YORK NY
800 AM EDT THU SEP 18 2014

NOTE: "FAIR" INDICATES FEW OR NO CLOUDS BELOW 12,000 FEET WITH NO
SIGNIFICANT WEATHER AND/OR OBSTRUCTIONS TO VISIBILITY.

NYZ071-072-176-178-NJZ106-104-181300-
NEW YORK CITY METRO AREA


CITY           SKY/WX    TMP DP  RH WIND       PRES   REMARKS
CENTRAL PARK   PTSUNNY   59  47  64 VRB3      30.03R
LAGUARDIA APRT MOSUNNY   62  48  60 N3        30.00R
KENNEDY INTL   MOSUNNY   63  53  70 NW6       30.01R
NEWARK/LIBERTY MOSUNNY   60  54  80 CALM      30.01R
BRNX BOT. GARD   N/A     61  50  67 N2        30.01F
TETERBORO      PTSUNNY   56  48  74 VRB3      30.00R
$$

NYZ177-179-078>081-181300-
LONG ISLAND NEW YORK

CITY           SKY/WX    TMP DP  RH WIND       PRES   REMARKS
FARMINGDALE    SUNNY     59  54  83 N5        30.00R
ISLIP          MOSUNNY   61  56  83 NW3       29.98R
SHIRLEY        SUNNY     56  54  93 CALM      30.00R
WESTHAMPTON    MOSUNNY   51  50  96 CALM      30.01S
MONTAUK POINT    N/A     63  53  70 NW6       30.00R
$$

NYZ052-065-067-181300-
HUDSON VALLEY

CITY           SKY/WX    TMP DP  RH WIND       PRES   REMARKS
WHITE PLAINS   SUNNY     55  48  77 NW6       30.00R
NEWBURGH       SUNNY     48  46  93 CALM      30.03R
MONTGOMERY     MOSUNNY   45  43  93 CALM      30.02R
POUGHKEEPSIE   CLOUDY    47  44  90 CALM      30.02R
ALBANY         MOSUNNY   48  45  89 S3        30.02R
$$

NJZ001-105-106-008-010-013-015-019>022-104-181300-
NEW JERSEY

CITY           SKY/WX    TMP DP  RH WIND       PRES   REMARKS
NEWARK/LIBERTY MOSUNNY   60  54  80 CALM      30.01R
TETERBORO      PTSUNNY   56  48  74 VRB3      30.00R
CALDWELL       PTSUNNY   50  46  86 CALM      30.02R
MORRISTOWN     MOSUNNY   48  48 100 CALM      30.02R
SOMERVILLE     MOSUNNY   48  45  89 NW3       30.00R
LINDEN         FAIR      60  55  83 CALM      30.02S
SUSSEX         CLOUDY    47  44  90 CALM      30.02S
ANDOVER          N/A     47  46  97 CALM      30.03R
TRENTON        SUNNY     52  49  89 CALM      30.00R
MILLVILLE      SUNNY     53  51  93 CALM      30.01R
ATLANTIC CITY  SUNNY     57  53  86 CALM      30.01R
WRIGHTSTOWN    SUNNY     53  51  94 CALM      29.99R
TOMS RIVER     SUNNY     48  43  81 CALM      30.01S
BELMAR         SUNNY     54  48  82 W6        30.00S
$$

PAZ047>061-062-071-181300-
EASTERN PENNSYLVANIA

CITY           SKY/WX    TMP DP  RH WIND       PRES   REMARKS
PHILADELPHIA   MOSUNNY   60  51  72 N5        30.01S
ALLENTOWN      CLOUDY    51  47  86 CALM      30.02R
SCRANTON       CLOUDY    49  44  83 CALM      30.03R
$$

CTZ002-004>006-009-010-012-RIZ004-006-007-MAZ004-011-015-181300-
SOUTHERN NEW ENGLAND
 IN CT

CITY           SKY/WX    TMP DP  RH WIND       PRES   REMARKS
BRADLEY INTL   MOSUNNY   50  45  83 CALM      30.00R
HARTFORD       FOG       48  47  96 S5        30.01R VSB 1
DANBURY        SUNNY     48  45  89 CALM      30.02S
WTRBRY/OXFORD  MOSUNNY   52  45  76 CALM      30.02R
BRIDGEPORT     SUNNY     56  50  80 CALM      30.00R
MERIDEN        SUNNY     50  46  86 CALM      30.01R
NEW HAVEN      SUNNY     56  49  77 N6        30.00R
CHESTER        FAIR      55  48  76 CALM      30.01R
GROTON         SUNNY     53  49  86 N6        29.99R
WILLIMANTIC    SUNNY     45  42  89 CALM      30.01R

 IN RI

CITY           SKY/WX    TMP DP  RH WIND       PRES   REMARKS
PROVIDENCE     MOSUNNY   54  47  77 W5        29.99R
BLOCK ISLAND   SUNNY     61  52  72 NW3       29.99R
WESTERLY       SUNNY     50  46  86 CALM      29.99R

 IN MA

CITY           SKY/WX    TMP DP  RH WIND       PRES   REMARKS
BOSTON         MOSUNNY   58  46  64 W8        29.97R
WORCESTER      SUNNY     55  45  68 W12       29.98R
WESTFIELD      SUNNY     47  45  93 CALM      30.00R
PROVINCETOWN   SUNNY     61  52  72 W8        29.97R
NANTUCKET      MOSUNNY   61  50  67 NW5       29.96R
$$

ANZ330-335-338-340-345-350-353-355-181300-
COASTAL MARINE OBSERVATIONS


STATION/POSITION TIME  SKY/WX   TEMP    WIND        PRES    VSBY  WAVE
                                AIR SEA DIR/SP/G                  HT/PER
                 (UTC)          (F)     (DEG/KT/KT) (MB)    (MI)  (FT/S)
NY HARB ENTRANCE 1200            65 70  300/ 10/ 14 1016.0          4/15
4S FIRE IS       1200               70                N/A           4/14
23SW MTP         1200                                 N/A           3/14
HUDSON CANYON    1200            68 73  350/ 10/ 14 1015.3          5/14
EXECUTION ROCKS  1200            60 70  270/  6/  8   N/A
WESTERN LI SOUND 1200            61     320/  4/  4   N/A           0
CENTRAL LI SOUND 1100            63 70  330/  6/  8   N/A           1
EASTERN LI SOUND 1100            60 68  360/  6/ 10   N/A
ROBBINS REEF     1200            58     350/  4/  5 1014.9
$$


>>>>>>>>>>>>>>>>>>>>>>>>>>>> KEY <<<<<<<<<<<<<<<<<<<<<<<<<<<
>                                                          <
>     SKY/WX - SKY CONDITION/PRESENT WEATHER               <
>     TMP    - TEMPERATURE IN FAHRENHEIT                   <
>     DP     - DEWPOINT IN FAHRENHEIT                      <
>     RH     - RELATIVE HUMIDITY IN PERCENT                <
>     WIND   - DIRECTION AND SPEED IN MPH                  <
>     PRES   - MEAN SEA LEVEL PRESSURE IN INCHES OF HG     <
>     WCI    - WIND CHILL INDEX                            <
>     VSB    - VISIBILITY IN MILES                         <
>     HX     - HEAT INDEX                                  <
>     TC     - TEMPERATURE IN CELSIUS                      <
>     VRB    - VARIABLE WIND DIRECTION                     <
>                                                          <
>>>>>>>>>>>>>>>>>>>>>>>>>>>> KEY <<<<<<<<<<<<<<<<<<<<<<<<<<<





USA.gov is the U.S. government's official web portal to all federal, state and local government web resources and services.